BEIDOU-3 M16 (C35)

Last updated on Dec. 12, 2019, 4:25 a.m. UTC

1 43648U 18078B   19345.50135795 -.00000062  00000-0  10000-3 0  9999
2 43648  55.1567  22.1260 0004175 326.8420 110.3350  1.86232444  7869
UTC
Height (km)
Latitude
Longitude
Inclination
Orbital Period
UTC large
Height (km)
Speed (km/s)
/
Latitude / Longitude
Inclination (degrees)
Orbital Period (minutes)
Azimuth
Elevation
Range (km)
Doppler Factor
iOS Compass Heading
iOS Angle

Next 30 passes for location: Hong Kong

Rise time Rise Azimuth (degrees) Set time Set Azimuth (degrees) Duration Max altitude (degrees)

No matching passes for this satellites